User: anonymous   Login
Location: Unspecified
(0.0000°N, 0.0000°E)
Time: 00:37:56
(UTC+00:00)
Language:

Oscar 11 - Orbit

View from above orbital plane
View from above orbital plane
View from above satellite
View from above satellite

Ground track
Ground track

The orbit data is extracted from the following two-line orbital elements,

1 14781U 84021B   24109.85681387  .00004555  00000-0  52214-3 0  9994
2 14781  97.6999  80.9409 0006371 273.5403  86.5085 14.86375983160679
Epoch (UTC): 18 April 2024 20:33:48
Eccentricity: 0.0006371
inclination: 97.6999°
perigee height: 605 km
apogee height: 614 km
right ascension of ascending node: 80.9409°
argument of perigee: 273.5403°
revolutions per day: 14.86375983
mean anomaly at epoch: 86.5085°
orbit number at epoch: 16067

The dashed part of the orbit path shows where the satellite is in the earth's shadow,  

DLR